User: anonymous   Login
Location: Unspecified
(0.0000°N, 0.0000°E)
Time: 10:23:52
(UTC+00:00)
Language:

SURFSAT - Orbit

View from above orbital plane
View from above orbital plane
View from above satellite
View from above satellite

Ground track
Ground track

The orbit data is extracted from the following two-line orbital elements,

1 43614U 18070B   19107.89158682 +.00002373 +00000-0 +65056-4 0  9990
2 43614 093.0299 338.1770 0016212 174.4277 185.7159 15.37246275032918
Epoch (UTC): 17 April 2019 21:23:53
Eccentricity: 0.0016212
inclination: 93.0299°
perigee height: 443 km
apogee height: 465 km
right ascension of ascending node: 338.1770°
argument of perigee: 174.4277°
revolutions per day: 15.37246275
mean anomaly at epoch: 185.7159°
orbit number at epoch: 3291

The dashed part of the orbit path shows where the satellite is in the earth's shadow,  

DLR